Location: San Antonio
(29.4240°N, 98.4930°W)
Time: 04:57:05
(UTC-05:00)

Courier 1B - Pass Details

Date: 15 July 2024
Orbit: 962 x 1208 km, 28.3° (Epoch: 17 July)

Event Time Altitude Azimuth Distance (km) Brightness Sun altitude
Rises 17:30:31 0° 261° (W) 3,969 11.6 37.8°
Reaches altitude 10° 17:33:22 10° 260° (W) 2,974 11.2 37.2°
Maximum altitude 17:40:40 80° 174° (S) 1,077 8.4 35.6°
Drops below altitude 10° 17:47:29 10° 89° (E) 2,792 9.5 34.2°
Sets 17:50:06 0° 88° (E) 3,714 10.0 33.6°
